Location: Middle Street
(51.7167°N, 0.0333°E)
Time: 19:54:51
(UTC+00:00)

H-2A R/B - Pass Details

Date: 20 January 2021
Orbit: 734 x 836 km, 98.2° (Epoch: 27 February)

Event Time Altitude Azimuth Distance (km) Brightness Sun altitude
Rises 19:51:53 0° 203° (SSW) 3,175 5.4 -31.0°
Reaches altitude 10° 19:54:36 10° 218° (SW) 2,269 4.8 -31.5°
Maximum altitude 19:58:30 23° 270° (W) 1,601 4.3 -32.1°
Drops below altitude 10° 20:02:29 10° 321° (NW) 2,329 5.0 -32.7°
Sets 20:05:21 0° 337° (NNW) 3,281 5.7 -33.1°
